SCP
0 1 1 1 1 1 1 1 1 1 1 1 1 1 1 1 1 1 1 1 1 1 1 1 1 1 1 1 1 1 1 1 1 1 0 0 0 0 0 0 0 0 0
0 0 1 1 1 1 1 1 1 1 1 1 1 1 1 1 1 1 1 1 1 1 1 1 1 1 1 1 1 1 1 1 1 1 1 0 0 0 0 0 0 0 0
0 0 0 0 0 0 0 1 1 1 1 1 1 1 1 1 1 1 1 1 1 1 1 1 1 1 1 1 1 1 1 1 1 1 1 0 0 0 0 0 0 0 0
0 0 0 0 0 0 0 0 1 1 1 1 1 1 1 1 1 1 1 1 1 1 1 1 1 1 1 1 1 1 1 1 1 1 1 1 0 0 0 0 0 0 0
0 0 0 0 0 0 0 0 0 0 1 1 1 1 1 1 1 1 1 1 1 1 1 1 1 1 1 1 1 1 1 1 1 1 1 0 0 0 0 0 0 0 0
0 0 0 0 0 0 0 0 0 0 0 1 1 1 1 1 1 1 1 1 1 1 0 0 1 1 1 0 0 1 1 1 0 0 0 0 0 0 0 0 0 0 0
0 0 0 0 0 0 0 0 0 0 0 0 1 1 1 1 1 1 1 1 1 0 0 0 0 0 0 0 0 0 0 0 0 0 0 0 0 0 0 0 0 0 0
0 0 0 0 0 0 0 0 0 0 0 0 0 0 0 1 1 1 1 0 0 0 0 0 0 0 0 0 0 0 0 0 0 0 0 0 0 0 0 0 0 0 0
0 0 0 0 0 0 0 0 0 0 0 0 0 0 0 0 0 0 0 0 0 0 0 0 0 0 0 0 0 0 0 0 0 0 0 0 0 0 0 0 0 0 0
0 0 0 0 0 0 0 0 0 0 0 0 0 0 0 0 0 0 0 0 0 0 0 0 0 0 0 0 0 0 0 0 0 0 0 0 0 0 0 0 0 0 0
0 0 0 0 0 0 0 0 0 0 0 0 0 0 0 0 0 0 0 0 0 0 0 0 0 0 0 0 0 0 0 0 0 0 0 0 0 0 0 0 0 0 0
0 0 0 0 0 0 0 0 0 0 0 0 0 0 0 0 0 0 0 0 0 0 0 0 0 0 0 0 0 0 0 0 0 0 0 0 0 0 0 0 0 0 0
0 0 0 0 0 0 0 0 0 0 0 0 0 0 0 0 0 0 0 0 0 0 0 0 0 0 0 0 0 0 0 0 0 0 0 0 0 0 0 0 0 0 0
0 0 0 0 0 0 0 0 0 0 0 0 0 0 0 0 0 0 0 0 0 0 0 0 0 0 0 0 0 0 0 0 0 0 0 0 0 0 0 0 0 0 0
0 0 0 0 0 0 0 0 0 0 0 0 0 0 0 0 0 0 0 0 0 0 0 0 0 0 0 0 0 0 0 0 0 0 0 0 0 0 0 0 0 0 0
0 0 0 0 0 0 0 0 0 0 0 0 0 0 0 0 0 0 0 0 0 0 0 0 0 0 0 0 0 0 0 0 0 0 0 0 0 0 0 0 0 0 0
0 0 0 0 0 0 0 0 0 0 0 0 0 0 0 0 0 0 0 0 0 0 0 0 0 0 0 0 0 0 0 0 0 0 0 0 0 0 0 0 0 0 0
0 0 0 0 0 0 0 0 0 0 0 0 0 0 0 0 0 0 0 0 0 0 0 0 0 0 0 0 0 0 0 0 0 0 0 0 0 0 0 0 0 0 0
0 0 0 0 0 0 0 0 0 0 0 0 0 0 0 0 0 0 0 0 0 0 0 0 0 0 0 0 0 0 0 0 0 0 0 0 0 0 0 0 0 0 0
0 0 0 0 0 0 0 0 0 0 0 0 0 0 0 0 0 0 0 0 0 0 0 0 0 0 0 0 0 0 0 0 0 0 0 0 0 0 0 0 0 0 0
0 0 0 0 0 0 0 0 0 0 0 0 0 0 0 0 0 0 0 0 0 0 0 0 0 0 0 0 0 0 0 0 0 0 0 0 0 0 0 0 0 0 0
0 0 0 0 0 0 0 0 0 0 0 0 0 0 0 0 0 0 0 0 0 0 0 0 0 0 0 0 0 0 0 0 0 0 0 0 0 -0 0 0 0 0 0
0 0 0 0 0 0 0 0 0 0 0 0 0 0 0 0 0 0 0 0 0 0 0 0 0 0 0 0 0 0 0 0 0 0 0 0 0 0 0 0 0 0 0
0 0 0 0 0 0 0 0 0 0 0 0 0 0 0 0 0 0 0 0 0 0 0 0 0 0 0 0 0 0 0 0 0 0 0 0 0 0 0 0 0 0 0
0 0 0 0 0 0 0 0 0 0 0 0 0 0 0 0 0 0 0 0 0 0 0 0 0 0 0 0 0 0 0 0 0 0 0 0 0 0 0 0 0 0 0
0 0 0 0 0 0 0 0 0 0 0 0 0 0 0 0 0 0 0 0 0 0 0 0 0 0 0 0 0 0 0 0 0 0 0 0 0 0 0 0 0 0 0
Wind_Speed
7 7 7 7 7 6 4 3 2 2 1 1 2 3 3 3 3 3 4 5 5 6 6 5 5 6 7 8 8 7 8 7 7 6 4 4 3 3 3 3 4 6 6
7 7 7 7 7 6 5 4 3 2 1 0 1 2 2 2 3 2 2 3 4 4 4 5 4 5 5 8 9 8 6 6 7 6 6 4 3 2 3 3 4 5 5
6 6 7 7 7 6 5 4 4 3 2 2 1 1 1 3 3 3 2 2 2 3 3 4 4 5 5 6 7 8 9 7 7 6 5 6 5 4 3 3 4 4 4
5 6 7 7 7 6 5 4 4 3 3 2 1 2 3 3 3 2 2 2 1 2 3 4 4 5 5 6 7 8 7 9 8 6 4 2 4 6 5 3 3 4 5
5 6 6 7 7 7 6 5 4 4 3 2 1 3 4 2 1 1 2 1 0 1 2 3 2 3 3 4 6 6 7 7 8 6 5 4 4 4 5 6 5 4 3
5 5 5 6 6 7 6 5 5 5 4 3 2 2 2 1 1 2 2 1 1 0 0 1 1 1 2 3 4 5 7 6 7 6 5 5 5 5 5 6 7 6 4
4 4 6 6 7 7 7 6 5 5 5 4 3 2 1 1 1 1 1 1 1 1 1 1 0 0 0 1 2 3 4 5 6 6 5 4 4 4 4 7 6 6 4
4 5 5 6 6 7 6 6 5 5 5 4 3 2 2 1 1 1 1 1 1 1 2 2 2 2 2 2 1 1 1 2 3 4 4 3 4 5 6 7 8 7 4
5 4 5 5 6 6 6 6 5 5 4 4 3 3 3 4 3 3 3 3 3 3 4 4 4 5 5 4 4 3 4 4 4 4 4 4 4 5 5 6 7 7 7
5 4 5 5 6 6 5 5 5 4 4 4 4 4 4 4 4 5 6 5 5 5 5 6 6 7 7 6 5 5 6 6 6 5 6 6 5 5 6 6 4 4 6
5 4 4 5 5 5 5 5 5 5 5 5 5 5 5 6 6 6 7 6 6 6 7 7 8 8 8 7 7 7 7 8 8 7 8 8 7 6 6 6 6 5 6
5 5 4 4 5 6 6 5 5 5 5 5 6 6 7 7 8 8 8 8 8 8 8 8 9 9 9 8 8 8 8 9 9 9 9 9 8 8 7 6 7 6 7
5 5 4 4 5 5 5 5 5 5 5 5 6 7 8 9 9 9 9 8 8 9 9 10 10 10 10 10 9 9 10 10 10 10 10 10 10 9 8 8 8 8 8
5 5 4 4 4 4 5 5 6 6 5 6 8 8 8 9 9 9 9 9 9 9 10 10 10 10 10 10 10 11 11 11 11 11 11 10 10 10 10 9 9 9 9
6 5 4 4 4 4 5 5 6 6 6 7 8 8 8 8 9 10 10 9 9 10 10 11 11 10 9 9 10 10 11 12 13 13 13 13 14 13 9 8 9 8 7
6 5 5 5 4 5 5 6 6 6 6 8 9 8 8 9 9 9 9 10 10 11 11 11 11 11 10 12 12 10 11 11 12 12 12 13 13 15 16 16 14 9 6
7 7 6 5 5 5 5 6 6 6 7 8 9 8 8 9 9 9 10 10 10 10 11 11 11 12 12 13 13 11 10 12 11 11 10 10 10 10 12 12 12 13 13
8 7 6 6 6 6 5 6 6 7 8 8 8 8 9 9 9 10 10 10 9 9 10 11 11 11 11 11 11 10 12 12 11 11 11 10 10 9 7 10 10 10 9
8 7 7 7 6 6 6 6 6 7 8 8 8 8 9 9 9 10 10 8 8 9 10 10 10 11 9 9 8 6 9 10 11 10 10 10 10 8 6 8 9 9 7
8 8 8 7 7 6 6 6 6 7 8 8 8 8 8 9 10 10 9 7 8 8 9 10 9 10 9 8 8 4 7 9 9 9 10 12 9 8 7 6 7 7 6
9 9 8 7 7 6 6 7 8 8 8 8 8 8 8 8 9 9 7 7 7 8 9 10 9 9 9 9 11 10 5 7 7 7 8 8 7 7 7 5 6 5 2
10 9 8 8 7 6 7 8 8 8 8 8 9 9 8 8 8 8 7 7 7 8 8 8 8 8 8 8 9 11 11 7 7 7 7 8 5 5 5 5 5 2 4
10 9 9 8 7 6 6 9 8 7 8 8 9 8 8 8 8 7 7 6 5 6 6 6 7 7 7 7 7 8 8 8 6 7 8 5 3 4 5 4 0 3 1
10 9 10 9 8 7 7 9 8 7 8 9 9 8 8 8 7 5 5 5 5 5 6 6 6 6 6 5 5 6 6 6 6 6 6 4 2 2 5 4 2 1 4
9 9 9 9 9 8 8 8 8 8 9 9 8 8 8 8 7 7 7 6 8 7 5 5 5 5 6 7 8 6 5 5 5 1 3 4 4 3 3 3 3 2 2
9 9 9 9 9 9 9 9 8 8 8 8 7 7 7 6 7 8 8 13 10 10 11 11 8 8 9 6 6 6 5 3 5 4 3 3 3 2 2 2 2 2 2
Wind_Direction
64 52 45 39 43 44 45 51 45 45 43 190 213 227 232 234 233 234 236 230 231 227 223 227 215 213 212 207 201 192 181 171 155 136 122 94 76 86 93 103 113 106 102
68 51 42 40 38 37 31 29 27 22 7 340 257 249 259 251 244 240 233 238 233 233 229 229 228 218 216 206 201 191 182 176 173 163 155 154 145 102 84 101 116 112 112
65 52 43 38 31 27 23 20 14 8 357 343 268 239 235 238 228 221 221 241 243 239 247 239 238 228 222 211 202 194 190 185 186 187 177 175 175 139 113 97 96 108 112
74 55 42 35 28 23 21 21 17 17 8 348 307 255 247 247 251 244 223 208 233 253 252 248 239 228 219 215 209 204 200 189 187 191 204 190 148 155 145 131 108 102 101
74 59 45 34 26 19 18 20 18 19 11 351 318 264 253 250 248 222 200 194 171 248 242 244 242 233 223 220 216 208 209 200 193 183 175 162 151 154 152 154 150 124 102
83 61 48 37 28 21 19 18 16 16 7 355 335 295 274 245 232 218 194 189 155 80 309 219 224 242 241 227 220 208 209 205 197 186 178 172 168 176 160 152 155 142 122
95 64 42 30 23 18 15 12 12 14 10 8 7 2 6 280 239 224 203 190 137 73 30 351 121 106 241 244 227 205 204 200 193 188 183 179 169 157 137 135 139 130 123
94 68 45 29 21 17 13 11 10 15 13 13 16 23 34 27 37 41 88 94 76 58 61 58 51 51 58 59 73 127 155 152 161 160 161 152 147 143 141 139 138 132 127
97 71 49 33 22 17 16 13 15 21 19 20 28 46 52 55 61 66 72 70 70 72 73 73 66 59 60 62 67 73 79 88 98 115 125 123 126 131 132 137 146 143 146
108 80 52 35 25 21 23 23 23 31 35 40 41 54 58 66 74 74 76 77 75 76 78 76 76 72 69 68 72 76 80 86 86 91 98 101 105 111 120 130 135 136 142
114 88 63 43 33 31 36 33 35 45 50 51 53 60 62 67 68 71 72 76 75 73 77 78 78 75 71 70 76 81 87 91 90 93 97 100 107 116 123 128 129 131 133
113 93 73 54 43 37 38 41 40 51 55 61 67 67 70 71 71 72 73 75 77 74 74 75 76 75 73 71 75 83 84 88 91 94 99 103 109 111 118 124 122 116 120
115 97 79 59 46 41 41 44 50 60 63 71 77 74 72 73 74 74 75 75 77 76 74 73 72 74 75 73 72 79 84 84 85 89 94 100 105 106 108 112 112 115 117
121 102 86 69 58 52 49 53 59 62 68 74 75 74 73 75 77 77 74 75 78 78 77 76 74 72 71 73 76 80 82 84 83 84 85 89 95 101 106 105 108 111 117
127 113 100 85 72 67 67 66 69 67 70 78 79 78 79 79 79 79 78 77 77 79 79 79 77 73 69 66 74 84 85 85 84 81 79 76 75 67 73 94 107 118 126
136 126 115 101 87 78 78 79 77 75 79 82 83 84 85 83 81 81 81 79 77 77 76 74 75 72 67 53 53 72 83 84 86 87 89 91 85 78 69 65 63 66 96
143 135 125 114 99 87 88 86 81 81 83 82 84 85 87 88 88 87 85 84 83 82 80 78 78 77 67 59 56 58 80 81 81 83 85 88 92 98 98 93 87 68 54
141 135 129 119 109 104 99 93 89 87 88 85 86 90 92 90 89 88 85 85 86 88 88 84 81 80 68 60 63 66 80 80 78 79 81 85 82 71 86 98 93 90 74
131 129 126 121 117 111 106 101 98 97 96 92 91 94 97 99 97 91 87 85 89 90 90 89 88 84 72 50 50 65 90 86 81 77 72 80 83 45 39 98 101 98 101
130 131 129 126 122 119 118 113 105 103 100 98 96 95 96 98 97 95 92 89 90 90 91 88 86 87 78 45 30 32 98 96 97 93 86 67 63 41 18 92 103 102 97
134 135 130 122 119 122 120 114 105 101 103 103 99 97 98 100 100 99 97 100 98 93 92 93 89 84 78 64 38 24 69 90 96 97 95 82 60 49 27 34 74 71 54
138 135 127 120 120 125 124 112 104 103 105 106 105 102 104 105 104 103 101 103 107 106 102 101 100 94 84 66 59 48 39 32 79 80 85 90 78 65 42 57 66 341 285
133 129 126 122 119 122 121 112 110 114 115 112 108 106 104 102 106 109 111 115 118 114 115 112 107 103 101 99 88 73 57 38 61 71 68 80 126 153 117 100 354 269 271
134 134 132 127 121 119 115 113 116 117 113 109 106 108 107 107 105 106 107 106 107 112 112 109 107 108 109 103 109 122 126 136 123 114 125 148 124 115 102 154 183 56 39
132 133 131 128 125 124 118 118 120 120 115 110 108 109 106 102 98 80 52 61 60 43 59 86 103 104 95 61 28 18 48 44 55 46 145 144 141 134 115 99 77 80 117
135 135 131 128 126 126 122 122 125 126 125 121 119 116 116 116 117 113 96 54 57 59 54 41 42 76 78 82 61 54 46 22 327 297 103 92 82 79 77 73 86 78 52